Fox Island, WA

12:01 PM PDT on July 25, 2016 (GMT -0700)
Tacoma Narrows

Weather History for KTIW - October, 2012

Change the Weather History Date:

Saturday, October 13, 2012

  Actual Average Record
Temperature  
Mean Temperature 57 °F -  
Max Temperature 61 °F 58 °F 72 °F (2014)
Min Temperature 54 °F 46 °F 37 °F (2002)
Degree Days  
Heating Degree Days 8    
Growing Degree Days 7 (Base 50)    
Moisture  
Dew Point 53 °F    
Average Humidity 87    
Maximum Humidity 94    
Minimum Humidity 77    
Precipitation  
Precipitation 0.22 in - - ()
Sea Level Pressure  
Sea Level Pressure 30.12 in    
Wind  
Wind Speed 10 mph (SSW)    
Max Wind Speed 16 mph    
Max Gust Speed 23 mph    
Visibility 8 miles    
Events Rain    
Averages and records for this station are not official NWS values.
T = Trace of Precipitation, MM = Missing Value Source: NWS Daily Summary

Daily Weather History Graph

Daily Weather History Graph

Search for Another Location

Airport or City:

Trip Planner

Search our weather history database for the weather conditions in past years. The results will help you decide how hot, cold, wet, or windy it might be!

Date:

Astronomy

Oct. 13, 2012 Rise Set
Actual Time 7:26 AM PDT 6:25 PM PDT
Civil Twilight 6:55 AM PDT 6:56 PM PDT
Nautical Twilight 6:20 AM PDT 7:31 PM PDT
Astronomical Twilight 5:44 AM PDT 8:06 PM PDT
Moon 5:17 AM PDT (10/13) 5:15 PM PDT (10/13)
Length of Visible Light 12h 00m
Length of Day
10h 58m
Waning Crescent, 4% of the Moon is Illuminated
Oct 13
Waning Crescent
Oct 15
New
Oct 21
First Quarter
Oct 29
Full
Nov 6
Last Quarter

Hourly Weather History & Observations

Time (PDT) Temp. Dew Point Humidity Pressure Visibility Wind Dir Wind Speed Gust Speed Precip Events Conditions
12:53 AM 54.0 °F 48.9 °F 83% 30.03 in 10.0 mi SSW 13.8 mph 19.6 mph N/A   Mostly Cloudy
1:53 AM 55.0 °F 48.9 °F 80% 30.05 in 10.0 mi SSW 4.6 mph - N/A   Overcast
2:53 AM 54.0 °F 48.9 °F 83% 30.07 in 10.0 mi SSW 8.1 mph - N/A   Overcast
3:53 AM 55.0 °F 50.0 °F 83% 30.07 in 9.0 mi SSW 10.4 mph 17.3 mph N/A   Overcast
4:53 AM 55.0 °F 50.0 °F 83% 30.09 in 10.0 mi Variable 5.8 mph 21.9 mph N/A   Overcast
5:31 AM 55.4 °F 51.8 °F 88% 30.08 in 10.0 mi South 10.4 mph - N/A   Overcast
5:53 AM 55.0 °F 51.1 °F 86% 30.09 in 10.0 mi SSW 9.2 mph - N/A   Overcast
6:53 AM 55.9 °F 51.1 °F 84% 30.10 in 10.0 mi SSW 5.8 mph - 0.02 in   Overcast
7:53 AM 55.0 °F 52.0 °F 89% 30.11 in 7.0 mi SSW 10.4 mph - 0.02 in Rain Light Rain
8:53 AM 55.9 °F 52.0 °F 87% 30.12 in 10.0 mi SSW 10.4 mph - 0.00 in Rain Light Rain
9:04 AM 55.4 °F 51.8 °F 88% 30.12 in 10.0 mi SSW 8.1 mph - 0.00 in   Overcast
9:53 AM 57.0 °F 52.0 °F 83% 30.14 in 10.0 mi SSW 10.4 mph - 0.00 in Rain Light Rain
10:53 AM 57.9 °F 53.1 °F 84% 30.15 in 8.0 mi SSW 13.8 mph - 0.01 in Rain Light Rain
11:53 AM 59.0 °F 54.0 °F 83% 30.14 in 10.0 mi South 13.8 mph - 0.00 in   Overcast
12:53 PM 60.8 °F 53.6 °F 77% 30.14 in 10.0 mi South 15.0 mph 23.0 mph N/A   Overcast
1:53 PM 57.9 °F 54.0 °F 87% 30.14 in 5.0 mi SSW 9.2 mph - 0.01 in Rain Light Rain
2:08 PM 57.2 °F 53.6 °F 88% 30.14 in 2.5 mi South 9.2 mph - 0.03 in Rain Rain
2:15 PM 57.2 °F 55.4 °F 94% 30.14 in 3.0 mi South 10.4 mph - 0.04 in Rain Light Rain
2:53 PM 57.9 °F 55.0 °F 90% 30.14 in 3.0 mi South 6.9 mph - 0.10 in Rain Light Rain
3:00 PM 57.2 °F 55.4 °F 94% 30.14 in 3.0 mi South 8.1 mph - 0.00 in Rain Light Rain
3:05 PM 57.2 °F 55.4 °F 94% 30.14 in 2.5 mi South 6.9 mph - 0.00 in Rain Light Rain
3:53 PM 59.0 °F 55.0 °F 87% 30.14 in 2.5 mi South 15.0 mph - 0.01 in Rain Light Rain
3:59 PM 59.0 °F 55.4 °F 88% 30.14 in 5.0 mi South 16.1 mph - 0.00 in Rain Light Rain
4:20 PM 59.0 °F 55.4 °F 88% 30.13 in 2.0 mi South 15.0 mph - 0.02 in Rain Light Rain
5:53 PM 59.0 °F 55.0 °F 87% 30.12 in 3.0 mi SSW 11.5 mph 18.4 mph 0.00 in   Overcast
6:53 PM 59.0 °F 53.6 °F 82% 30.12 in 10.0 mi SW 11.5 mph - N/A Rain Light Rain
7:53 PM 57.9 °F 55.0 °F 90% 30.13 in 4.0 mi South 9.2 mph - 0.05 in Rain Light Rain
8:00 PM 57.2 °F 55.4 °F 94% 30.14 in 6.0 mi SSW 6.9 mph - 0.01 in Rain Light Rain
8:35 PM 57.2 °F 55.4 °F 94% 30.13 in 10.0 mi SSW 9.2 mph - N/A   Overcast
8:53 PM 59.0 °F 55.4 °F 88% 30.14 in 8.0 mi SSW 6.9 mph - N/A Rain Light Rain
9:53 PM 59.0 °F 55.4 °F 88% 30.13 in 10.0 mi SW 8.1 mph - N/A   Overcast
10:41 PM 59.0 °F 55.4 °F 88% 30.11 in 10.0 mi South 9.2 mph - 0.00 in   Overcast
10:53 PM 59.0 °F 55.0 °F 87% 30.11 in 10.0 mi SSW 9.2 mph - 0.00 in   Overcast
11:53 PM 60.1 °F 54.0 °F 80% 30.12 in 10.0 mi SSW 9.2 mph - N/A   Overcast